STARLINK-31758, 59621

Orbit data source: Space-Track

STARLINK-31758, 59621 is a payload satellite owned by SpaceX/Seattle (US) in LEO that was launched on Sun, 28 Apr 2024 UTC via an FALCON 9 launch vehicle from the Air Force Eastern Test Range (AFETR). Payload-class satellites include a variety of spacecraft equipped with specific instruments for various scientific and technological missions. These include communications satellites like Starlink; space stations such as the ISS; scientific satellites like the Hubble; Earth observation satellites from companies like Planet Labs, Umbra, and HawkEye 360; GPS; miniature CubeSats for education and research; and military/defense satellites.

Loading next visibility...
Identifier
59621, 2024-080W
Orbit
LEO
Country
Flag of USUS
Related business
Manufacturer
SpaceX/Seattle
Mission
Operational Commercial Communications
Bus & Motor
STARLINK V2M, Unknown motor
Mass
730 kg wet, ~700 kg dry
Launch date (UTC)
2024-04-28 (2 years ago)
Launch vehicle
FALCON 9
Launch site
Air Force Eastern Test Range (AFETR)
Object type
Payload
Rocket body
Debris
Shape & HBR
Box + 2 Pan, 17.7 m
Radar Cross Section
33.884 m², Large (>1 m²)

Expand to show TLE details & history
Last TLE update: 2 days ago

TLE from 2 days ago
0 STARLINK-31758
1 59621U 24080W   26171.06325285  .00000759  00000-0  37129-4 0  9992
2 59621  43.0037 175.9246 0001301 187.5464 172.5368 15.27563918120233
Epoch: 2026-06-20T01:31Z
TLE epoch observation values (Epoch: 2026-06-20T01:31:05.046Z)
Latitude
-0.00003°
Longitude
-115.12971°
Altitude
483.758 km
Speed
7.625 km/s
True Right ascension
11h 43m 41s
True Declination
0° 00' 00"
Sunlit
Object was in daylight at epoch
Visualization orbit readout
Latitude
Unknown
Longitude
Unknown
Altitude
Unknown
Speed
Unknown
Apparent Right ascension
Unknown
Apparent Declination
Unknown
Sunlit
N/A
Visualization observer readout
Local Sidereal Time
21:34:38
Azimuth
Unknown
Elevation
Unknown
Doppler factor
Unknown
Orbital elements
Apogee altitude
485.935 km
Perigee altitude
484.149 km
Semi-major axis
6,863.179 km
Eccentricity
0.00013
Inclination
43.0037°
RAAN
175.9246°
Arg. of periapsis
187.5464°
True anomaly
172.53874°
Mean anomaly
172.5368°
Eccentric anomaly
172.53777°
Mean motion
3.81729 °/min
Orbital period
94.31 mins
BSTAR
0.000037129
Loading maneuver chart data...
Computing Atmospheric mass density...
Loading historical data...
Loading historical data...
Loading historical data...
Loading historical data...
Loading historical data...
Loading historical data...
Loading historical data...

Documentation

Showing up to 5 results
|